Terminal Aerodrome Forecast
Issued by NWS Grand Forks, ND

Home | Current Version | Previous Version | Text Only | Print | Product List | Glossary On
Versions: 1 2 3 4 5 6 7 8 9 10 11 12 13 14 15 16 17
000
FTUS43 KFGF 292300
TAFFAR
TAF
KFAR 292320Z 3000/3024 32016G21KT P6SM SCT080
     FM300200 29006KT P6SM SKC
     FM301100 16006KT P6SM BKN120
     FM302100 30017G26KT P6SM SCT120=

USA.gov is the U.S. government's official web portal to all federal, state and local government web resources and services.